Theta_e
344 345 346 347 346 345 345 346 348 348 349 350 350 350 351 353 352 354 357 356 355 356 357 359 360 360 359 360 360 357 355 356 357 357 363 363 363 361 360 360 361 360 357 355 351 350 350 350 350 351 352 348 347 348 348 349 352 353 355 354 353 357 357 357 352 350 353 354 354 356 359 358 357 362 361 363 367 370 364 367 369 367 368 367 368
344 346 347 347 347 346 346 348 349 350 349 349 349 348 350 351 353 356 356 357 358 357 356 357 358 358 358 358 358 356 357 355 356 361 356 360 360 359 359 359 356 364 360 357 355 351 350 351 351 350 351 351 351 351 350 348 348 351 353 354 353 355 358 355 354 353 351 354 353 359 360 361 357 362 361 364 366 367 367 368 368 370 369 369 369
345 347 347 347 346 346 347 347 348 350 349 349 348 348 349 350 353 354 355 356 358 358 359 358 357 358 357 358 359 359 358 358 359 358 355 360 360 358 358 358 355 362 361 360 356 356 352 352 351 352 351 353 353 352 353 350 350 350 352 353 354 355 357 358 356 354 351 350 356 354 357 362 362 362 367 369 370 369 368 365 365 368 370 368 368
344 345 345 345 346 346 346 346 347 348 348 349 348 348 349 350 352 353 355 357 355 357 358 357 356 357 356 356 356 356 357 357 358 358 357 361 361 360 358 359 360 361 361 359 359 359 356 354 352 354 356 355 355 354 355 354 354 354 352 353 354 354 357 357 359 358 354 350 354 354 358 358 361 367 368 369 369 369 368 367 367 367 368 370 368
344 344 344 344 345 345 345 345 345 345 346 345 347 348 347 349 350 351 353 354 357 357 358 358 355 353 353 354 354 355 356 355 355 354 352 359 361 360 360 361 359 359 358 358 360 361 360 357 356 357 355 354 353 352 353 354 354 353 352 353 354 355 356 357 358 360 358 355 353 357 360 362 363 365 368 364 364 367 368 366 366 368 368 368 369
344 343 343 342 342 344 344 344 344 344 344 344 345 348 347 348 350 351 353 353 355 354 355 358 357 354 354 354 354 354 356 356 355 356 359 359 359 360 360 360 358 358 358 359 359 360 361 361 359 361 360 357 355 355 355 355 355 354 354 355 355 355 355 357 358 358 359 358 358 355 360 358 360 364 367 367 361 359 360 363 367 367 366 363 365
343 343 342 341 341 342 343 342 342 343 343 345 346 348 348 347 348 349 352 353 353 353 354 356 357 358 356 354 352 354 354 356 356 358 358 359 358 358 359 359 358 358 359 360 360 361 362 359 359 360 360 357 355 354 354 358 356 355 356 357 359 357 354 355 356 357 358 357 357 357 357 360 362 361 365 369 366 364 360 359 359 362 366 363 363
343 342 342 341 342 341 343 343 343 344 344 346 347 346 347 347 348 350 351 351 351 352 352 353 355 357 357 352 352 352 353 354 356 359 360 357 361 359 359 359 359 357 360 361 361 360 360 359 362 362 361 361 360 359 358 359 359 358 358 359 358 357 355 353 354 354 356 357 354 355 356 357 362 363 364 367 363 363 362 360 357 357 358 364 366
342 342 342 341 341 341 342 343 344 344 346 345 345 345 345 347 348 349 350 350 350 352 353 355 354 352 352 353 354 351 350 350 355 357 357 352 351 359 359 359 359 360 361 360 360 359 359 362 363 361 363 361 360 360 360 362 360 358 360 361 360 359 359 355 354 355 355 355 354 357 358 357 358 360 359 359 357 358 362 364 360 361 361 360 364
341 341 340 340 340 341 342 342 343 344 344 344 344 345 345 346 347 348 348 349 350 351 355 353 354 354 353 352 353 354 354 353 352 348 349 353 352 349 352 359 359 360 360 360 358 360 362 362 362 360 359 361 361 361 360 362 363 362 362 364 362 363 364 361 355 355 355 355 354 354 354 355 356 359 358 360 362 365 361 363 357 358 361 358 360
341 340 338 340 340 341 341 341 342 342 343 343 344 344 345 345 346 347 347 348 349 351 351 352 352 352 353 354 352 349 348 353 349 341 341 345 351 351 350 358 358 355 351 351 352 351 359 362 362 360 361 360 363 360 359 358 358 358 359 363 363 366 366 361 358 357 355 356 353 355 354 353 355 358 359 359 361 361 360 360 358 358 356 353 350
339 339 338 339 339 340 339 340 341 341 341 342 343 344 344 344 345 346 346 346 347 349 349 352 351 352 352 353 354 353 354 350 339 338 339 339 344 350 350 347 352 352 350 351 351 349 355 360 361 361 361 361 360 360 360 357 356 356 356 356 357 360 362 366 363 359 359 356 354 353 356 353 356 359 358 359 359 359 361 359 358 356 355 353 353
339 337 338 338 339 339 340 339 340 340 340 342 343 343 343 343 344 344 344 346 347 347 348 350 352 352 352 352 352 354 356 350 336 335 336 337 338 345 349 351 356 354 355 353 353 354 356 354 359 362 361 360 361 362 363 362 356 355 355 356 356 355 349 351 358 366 368 365 361 356 353 354 353 356 361 361 365 359 360 356 357 356 355 348 356
337 337 337 338 339 339 339 339 339 340 340 341 342 342 341 342 343 343 344 346 346 346 347 348 350 351 351 350 351 352 354 353 336 335 335 335 336 340 347 348 349 354 354 353 355 356 355 354 353 355 363 363 363 363 363 363 364 362 361 361 361 359 354 351 352 356 362 365 362 358 360 358 353 355 362 367 366 359 357 356 357 351 348 351 355
336 336 336 338 339 338 338 338 338 339 340 340 341 341 340 341 342 343 345 346 346 347 347 346 348 350 350 350 349 348 350 343 335 333 331 331 333 340 346 347 346 351 354 354 355 357 356 353 354 353 356 363 363 362 362 362 363 361 362 362 362 363 363 362 361 361 362 362 362 362 360 359 359 359 359 369 368 367 364 361 360 360 357 357 354
335 334 335 336 337 337 337 337 337 338 338 339 339 339 340 340 340 343 345 346 347 347 348 349 348 347 349 350 349 348 351 339 333 331 329 329 332 344 348 347 348 352 351 352 354 355 356 356 355 354 355 360 359 355 359 363 362 360 359 359 360 363 365 364 354 356 365 365 365 365 364 364 355 358 361 370 369 367 365 362 364 359 355 353 348
334 334 334 335 336 337 337 336 337 337 338 338 338 338 339 340 341 344 344 345 345 345 346 347 348 348 348 348 349 349 349 342 330 329 328 327 332 344 347 346 345 347 349 350 353 355 355 353 352 351 355 359 353 340 344 358 361 360 359 359 359 361 362 367 352 346 348 346 346 348 348 346 345 344 342 346 364 364 363 356 353 355 352 344 348
334 334 334 336 336 336 337 337 336 337 337 337 337 338 339 340 341 343 343 343 343 345 347 347 348 348 347 347 347 350 351 350 330 328 326 327 336 345 346 344 346 347 348 352 354 353 356 349 351 356 358 358 348 337 337 356 358 360 362 361 361 361 361 364 367 364 343 341 340 341 342 343 345 344 345 343 344 358 360 352 356 355 346 347 346
333 334 334 336 337 336 337 337 337 336 336 337 338 338 338 339 341 342 343 344 344 345 344 345 346 347 347 350 348 349 351 350 328 326 325 326 335 346 349 347 347 347 347 349 349 354 351 350 350 353 353 351 338 335 333 352 357 356 357 359 356 357 358 362 363 363 363 362 362 361 358 354 362 364 363 348 350 356 362 361 359 354 348 349 350
334 335 335 336 336 336 337 337 337 337 337 337 339 338 340 340 340 342 343 343 342 342 343 344 345 346 348 348 349 351 352 352 347 324 324 324 326 345 349 348 346 347 347 348 350 351 352 350 354 341 336 335 332 329 328 333 352 358 357 351 349 352 363 362 363 364 360 357 360 361 359 361 362 365 364 363 358 359 359 361 361 354 352 353 353
334 335 335 335 335 335 337 336 336 337 338 338 338 339 339 338 339 341 341 342 341 341 341 343 344 345 346 347 347 348 349 351 350 327 322 323 324 333 344 347 348 347 347 347 347 348 349 351 351 347 330 329 328 325 323 324 337 358 357 350 353 354 358 359 356 352 356 361 354 355 361 362 361 359 361 363 360 358 358 359 361 361 358 356 353
334 334 334 334 334 335 336 336 337 336 337 338 337 337 339 340 341 341 341 340 339 339 340 339 341 344 346 348 349 349 349 348 349 335 323 321 321 323 342 346 347 348 346 346 347 347 349 351 350 345 330 326 326 323 321 322 326 349 355 336 335 337 357 359 356 351 351 351 351 353 357 356 358 358 358 359 358 356 357 358 358 357 361 360 352
333 333 333 333 334 335 336 336 336 336 337 337 337 337 339 341 342 341 340 339 338 339 337 340 341 342 343 345 347 349 349 348 345 349 333 320 319 319 323 335 334 347 345 343 345 347 352 349 349 344 327 321 320 319 319 320 329 340 328 327 329 330 344 355 354 352 347 347 347 348 352 355 354 351 355 358 360 360 358 357 358 359 360 357 354
332 331 332 332 333 335 335 336 336 337 337 338 339 339 339 340 339 339 338 338 337 336 338 339 340 340 341 342 345 345 347 348 348 344 344 329 321 318 318 319 324 340 345 345 347 347 349 349 348 326 323 314 314 317 320 324 337 325 322 325 329 336 347 349 349 350 351 349 345 345 349 352 354 352 353 358 358 360 359 358 358 359 359 358 357
330 330 331 332 332 334 335 335 336 336 336 338 337 336 337 339 338 339 338 336 337 337 337 335 334 336 340 341 342 344 346 347 348 346 340 340 327 321 320 319 319 318 333 341 345 347 340 326 321 324 322 318 314 317 319 323 318 320 322 325 339 346 346 346 346 349 347 345 347 348 348 351 356 357 357 355 360 360 359 359 360 360 358 354 353
329 328 330 331 332 333 333 334 335 335 336 337 337 336 336 336 335 337 337 336 335 336 336 337 334 334 338 341 341 342 345 347 347 347 346 345 340 328 324 325 334 332 335 337 337 332 325 323 321 321 324 325 336 339 340 342 329 325 325 330 342 347 348 347 347 347 346 347 349 349 349 352 357 355 354 361 359 356 355 356 352 349 347 348 347
329 328 328 329 331 332 332 331 331 333 336 336 336 335 335 335 334 334 335 334 334 334 335 336 336 335 336 339 342 343 344 344 344 344 347 348 348 346 343 340 337 339 340 341 337 337 336 335 336 331 331 334 336 338 339 340 343 343 344 344 342 343 346 348 349 347 347 347 348 350 351 356 358 356 357 356 353 354 354 349 349 347 347 347 346
327 327 327 328 330 331 331 330 331 331 333 335 333 334 334 334 334 333 333 334 333 332 333 334 333 335 336 337 340 342 343 344 343 339 341 343 341 344 345 345 346 345 344 344 343 344 345 343 338 341 342 341 341 343 344 345 345 345 346 347 346 345 346 348 349 350 350 350 350 353 353 356 356 356 351 352 353 349 348 346 348 346 346 345 342
327 326 326 327 328 329 329 329 330 330 332 334 334 335 334 333 334 336 339 338 336 335 334 334 337 335 335 337 338 339 341 342 345 322 336 319 335 341 341 341 344 345 345 337 346 346 344 344 343 342 342 342 343 344 344 345 346 346 346 346 347 347 346 345 344 346 348 348 347 348 345 346 348 349 348 347 345 346 347 347 348 346 346 346 341
326 325 325 326 327 327 327 328 329 329 329 330 331 333 334 326 328 335 335 334 329 321 319 333 336 337 336 336 339 338 338 341 320 311 311 309 307 306 311 310 307 327 333 325 341 342 341 340 341 341 341 341 341 341 342 344 343 344 345 341 345 345 346 346 347 348 349 349 350 349 350 349 346 344 345 344 344 345 346 342 345 347 343 341 340
325 324 324 325 325 326 326 326 328 329 330 329 329 329 331 333 313 312 321 328 322 314 308 309 312 316 330 334 335 324 322 317 312 308 307 305 302 301 301 301 306 308 314 339 339 338 338 338 339 340 340 341 340 341 341 341 341 340 340 342 343 344 343 344 347 349 346 346 349 349 349 348 344 343 343 344 344 345 344 345 344 343 341 341 339
324 324 324 325 325 326 326 326 327 328 328 328 329 329 330 331 334 317 307 313 314 310 308 306 305 306 309 314 328 337 326 313 306 305 304 302 300 299 298 299 301 303 306 316 338 339 338 339 338 339 340 339 340 340 340 340 340 340 340 339 339 341 342 345 348 349 348 348 346 347 347 347 346 344 344 343 341 342 341 340 340 340 340 342 340
325 324 324 325 325 326 326 327 328 328 327 327 327 328 328 329 327 328 342 308 306 308 307 305 304 303 303 301 301 307 311 312 305 300 299 300 300 299 298 297 299 300 309 329 337 337 339 339 338 340 339 338 339 339 339 337 337 338 339 339 337 336 340 343 346 348 347 347 347 347 349 349 347 342 339 341 341 340 339 339 340 340 340 339 337
326 325 325 325 325 325 326 326 326 327 327 327 327 328 331 332 331 328 330 336 335 323 307 303 303 303 301 299 301 300 299 301 301 301 299 300 299 299 301 310 301 298 316 337 338 338 338 338 338 338 338 339 339 338 336 336 335 337 337 337 337 336 336 339 343 341 343 345 345 343 343 343 340 339 338 339 340 340 340 339 340 339 338 337 336
324 325 325 326 325 325 325 325 325 326 326 327 327 328 331 333 334 330 329 330 330 332 334 339 319 302 320 314 301 298 298 298 299 298 298 297 298 297 298 321 325 328 327 336 338 339 337 337 337 338 337 337 337 337 337 337 335 336 337 335 334 336 338 339 341 340 340 341 341 339 340 339 340 339 338 338 338 339 338 338 338 337 336 335 334
324 323 323 324 324 324 324 324 325 326 326 326 328 328 331 330 327 332 330 329 330 332 335 337 337 325 308 307 307 300 297 296 297 298 298 297 297 297 323 331 332 331 332 335 336 338 338 337 337 337 337 336 337 337 337 335 335 335 337 336 332 335 336 338 338 339 340 340 339 339 337 340 342 339 341 340 340 339 338 337 336 336 336 335 336
324 324 324 324 325 324 325 325 326 326 325 326 327 330 333 331 330 333 333 330 330 331 334 335 335 338 324 330 321 302 297 298 298 298 297 297 294 306 325 334 335 335 334 336 338 338 337 337 337 338 337 337 336 336 338 337 337 337 338 339 338 336 336 337 337 339 341 341 339 340 341 340 342 342 342 340 340 339 337 336 336 335 335 334 334
324 324 325 325 324 323 324 323 324 325 326 327 329 332 332 331 331 332 332 333 333 333 334 336 332 334 335 339 333 333 322 301 297 296 295 295 304 315 323 331 337 338 336 339 341 339 338 338 338 338 337 337 336 336 336 338 338 338 338 341 340 338 337 336 337 341 341 341 341 342 341 342 342 342 340 337 335 335 335 335 335 335 335 334 333
325 324 323 324 323 323 322 323 323 323 325 326 328 329 327 331 329 330 333 334 333 334 335 336 337 337 337 340 339 337 330 328 330 331 328 326 324 324 327 332 336 341 340 337 336 337 337 338 339 340 339 339 338 338 337 338 340 340 340 338 339 339 337 339 340 341 339 339 340 341 340 341 341 341 340 338 335 336 335 335 335 334 334 333 333
324 324 324 323 323 322 322 322 323 323 326 326 328 330 332 330 329 329 329 330 332 333 334 334 334 336 338 339 337 338 334 333 334 335 335 332 328 329 331 333 336 338 337 337 337 336 337 339 340 340 340 340 340 340 340 341 341 341 341 338 338 338 338 339 339 339 337 337 339 340 340 340 340 340 340 338 337 337 337 336 335 335 336 335 334
323 323 324 322 321 320 321 322 322 323 325 326 329 330 328 329 331 330 329 328 329 331 331 333 335 337 335 332 318 319 332 332 334 335 335 332 332 333 334 337 339 339 338 338 337 338 339 340 339 340 340 342 343 342 342 343 342 341 340 338 338 337 339 339 339 339 338 338 338 338 339 340 340 339 338 338 340 338 337 337 337 337 335 337 336
322 320 320 320 321 321 321 322 323 324 325 326 327 328 330 329 329 332 330 331 332 333 332 332 335 338 327 312 309 303 325 334 335 336 335 335 333 336 337 339 342 340 340 338 338 339 339 341 340 342 342 343 342 341 343 343 341 340 339 338 339 339 338 339 339 339 339 339 339 339 339 340 339 339 339 340 339 339 338 337 337 336 336 336 336
322 320 319 320 320 321 321 321 322 322 323 323 325 327 328 331 330 330 329 328 328 327 328 331 333 332 329 313 314 307 330 334 334 336 337 334 334 334 335 339 342 342 342 339 339 340 341 341 343 343 342 341 341 341 343 344 343 341 340 340 340 340 340 340 341 341 341 340 339 339 340 339 338 338 339 338 337 337 337 337 336 337 336 336 336
320 319 318 319 319 320 321 322 322 322 322 324 325 326 330 328 330 332 330 330 329 329 330 329 331 329 330 325 319 326 333 334 335 335 333 334 335 335 337 337 342 341 340 340 340 341 342 343 341 338 338 337 338 342 344 346 346 343 341 341 341 339 340 341 341 341 341 341 340 340 340 339 338 338 337 336 338 337 336 337 336 336 335 336 335
318 318 318 318 319 319 320 321 322 321 322 322 323 324 328 329 329 328 327 326 326 326 327 327 328 330 331 332 331 331 332 338 337 335 334 335 335 337 338 339 339 339 339 339 341 342 341 338 336 335 334 335 337 340 342 340 341 346 345 343 342 340 341 343 344 343 342 342 340 339 339 338 338 339 339 338 338 338 335 336 337 336 334 336 336
318 318 319 319 319 319 319 319 322 320 320 321 321 322 324 324 324 324 325 324 324 324 324 324 326 328 331 332 332 331 332 337 336 334 331 332 335 337 338 339 338 338 338 338 338 338 337 336 337 337 334 334 335 337 337 338 339 341 344 347 346 346 347 346 346 346 344 343 339 339 340 338 339 339 339 338 339 338 338 339 341 341 338 337 337
318 318 318 319 319 319 319 319 319 319 319 320 320 321 320 320 319 320 322 321 321 322 321 321 323 328 332 331 330 332 332 337 334 333 332 332 333 335 336 334 333 332 333 335 336 336 334 331 330 335 333 332 333 334 336 338 339 338 338 340 342 344 346 346 345 345 344 344 343 343 341 340 339 340 339 339 340 337 335 338 342 340 340 338 339
319 318 318 319 319 318 318 317 317 319 317 317 318 319 318 318 317 318 318 318 318 318 318 319 320 321 325 327 327 326 328 330 329 328 327 327 329 332 332 331 330 330 331 331 332 332 332 331 332 332 333 332 331 330 332 335 337 338 337 336 332 329 322 318 351 347 347 348 348 346 344 343 343 343 343 343 342 338 338 338 338 340 338 336 333
318 318 318 318 318 317 316 316 317 316 316 316 316 316 316 316 315 316 316 316 316 316 316 316 316 317 319 321 322 322 323 324 322 321 319 319 322 325 326 325 325 326 326 325 326 326 327 327 327 325 324 323 323 327 329 332 334 336 335 333 316 302 307 312 330 343 330 348 347 347 348 346 345 343 341 343 340 342 339 339 338 334 333 333 333
316 317 317 318 317 316 317 316 315 315 315 315 314 314 314 314 314 314 314 314 314 313 313 314 314 315 316 316 316 317 317 317 318 317 316 316 317 318 319 320 321 320 320 320 322 324 326 326 325 325 326 328 329 330 331 332 332 332 330 319 302 304 308 309 307 308 343 347 346 346 345 344 343 342 342 342 341 339 337 335 334 333 332 331 331
317 317 316 316 315 315 315 315 314 314 314 314 313 313 314 313 313 313 312 312 312 312 312 312 313 313 313 313 314 314 313 313 314 314 314 313 313 314 316 316 317 317 319 319 320 320 319 320 320 322 323 325 327 328 328 327 323 317 305 301 301 299 301 311 332 308 306 319 343 342 342 341 342 340 339 339 339 336 334 332 331 331 330 328 327
Wind_Speed
8 7 6 6 7 7 7 7 7 6 7 7 8 8 9 9 9 9 9 9 9 10 10 10 10 10 12 11 11 11 11 11 9 13 10 11 9 9 10 10 14 12 12 12 12 12 11 11 12 12 11 11 10 10 11 10 10 9 9 8 8 8 7 7 8 8 7 6 6 5 5 6 7 6 6 6 6 6 7 7 7 7 7 7 8
7 8 8 8 8 8 8 7 6 6 7 8 8 8 9 8 9 9 10 9 9 10 11 10 10 11 12 12 12 13 12 12 15 11 12 13 12 9 9 9 13 13 11 12 12 11 11 11 12 12 12 12 12 11 10 11 10 10 10 9 8 8 8 8 8 7 7 5 6 5 6 4 6 5 6 5 5 5 6 5 6 6 7 6 7
6 6 7 7 9 9 8 8 7 7 7 7 8 8 8 9 9 10 10 10 9 9 10 10 11 11 11 11 12 13 14 14 13 8 14 13 13 12 10 10 15 12 12 12 12 12 12 12 12 12 11 12 12 11 12 12 10 11 10 9 9 9 8 8 7 8 8 7 6 7 6 5 5 5 4 4 5 5 6 7 6 6 6 7 7
6 6 7 8 8 8 8 8 9 8 8 8 9 9 8 8 9 9 10 9 10 9 9 9 9 10 11 11 12 12 13 13 12 11 15 13 12 13 13 14 12 11 11 11 11 10 11 12 13 13 12 12 11 11 10 10 9 9 11 10 9 10 8 8 8 8 8 8 6 7 5 6 5 6 5 5 5 6 6 6 7 8 7 7 7
7 7 8 9 8 8 9 8 9 9 10 9 10 10 10 9 8 9 10 10 10 9 8 8 8 9 10 12 10 12 14 14 14 12 15 13 12 12 12 12 12 12 12 11 10 10 12 13 13 13 12 12 11 12 11 12 10 10 11 10 9 9 8 8 8 8 8 8 7 6 6 6 6 6 5 6 6 7 7 7 7 7 7 7 6
8 9 9 9 9 9 9 9 9 10 10 11 11 10 10 9 9 9 9 10 10 10 9 8 8 9 10 11 10 11 12 13 14 15 14 13 12 12 12 12 12 12 12 12 12 12 11 10 10 10 9 7 6 8 9 11 9 10 11 10 10 9 8 8 8 8 9 9 8 7 6 7 6 6 6 6 7 7 7 7 7 7 7 8 8
9 10 10 10 10 10 10 9 9 9 10 10 10 10 10 10 10 10 9 10 10 10 10 9 8 9 8 8 11 12 12 13 13 14 13 12 13 14 13 13 13 12 13 13 13 11 10 11 11 11 10 10 11 12 12 8 8 14 12 11 11 11 10 9 9 9 9 9 9 9 8 7 6 6 6 7 7 7 7 7 7 6 6 7 7
9 10 10 10 10 10 10 11 11 10 10 10 10 10 10 10 10 10 10 10 11 10 11 10 9 9 7 7 8 8 9 10 12 11 11 12 11 11 13 13 13 13 14 14 13 12 11 14 13 12 11 11 11 12 13 10 11 11 12 11 11 11 11 11 10 9 9 9 9 8 8 7 6 7 6 6 7 7 7 7 8 7 7 6 7
9 10 10 11 11 11 11 11 10 10 10 10 10 11 11 10 10 10 10 10 9 10 10 9 9 10 9 8 7 8 10 10 9 9 8 12 13 12 13 13 13 13 13 15 14 13 15 15 13 13 13 13 15 14 14 10 10 11 11 11 11 11 10 11 9 8 8 9 9 8 8 8 8 7 7 8 8 8 5 7 7 7 6 7 7
9 10 11 11 11 11 11 11 11 11 11 11 10 11 10 10 10 10 11 11 10 10 10 9 8 9 9 8 8 8 8 7 11 15 13 10 9 12 14 12 12 11 8 8 10 13 14 13 12 14 13 15 15 15 13 12 11 11 9 9 11 10 9 9 10 9 9 9 9 9 9 9 9 8 8 8 7 6 7 7 8 7 7 7 7
9 11 11 11 11 11 11 10 10 11 11 11 11 11 11 10 10 11 11 11 11 10 10 10 9 8 9 10 8 7 9 7 12 14 15 16 14 11 11 9 7 5 7 11 10 14 15 14 13 14 14 13 13 15 15 16 15 15 14 13 9 9 10 11 11 11 9 7 9 9 9 10 9 8 8 7 7 7 6 6 7 7 7 7 7
11 11 11 11 11 11 11 11 11 11 11 11 11 11 11 11 11 11 11 11 11 10 11 10 10 9 8 9 10 9 7 9 10 8 10 12 13 8 7 11 11 8 11 12 12 15 14 11 11 11 12 14 15 14 15 17 17 17 17 17 17 16 13 10 9 10 11 10 9 9 9 8 9 7 7 7 7 7 6 6 6 7 7 7 6
12 12 11 11 11 11 11 11 12 11 11 11 11 10 11 11 11 11 11 11 10 11 11 10 10 10 9 9 10 10 10 6 8 9 13 17 14 11 9 12 12 12 9 8 10 11 9 12 11 11 11 16 15 14 14 15 18 19 18 18 19 18 17 16 13 11 8 9 8 7 8 8 9 9 8 7 5 6 5 6 5 5 6 9 5
12 12 12 12 11 11 11 11 12 11 11 11 11 11 11 11 11 10 10 10 10 11 11 11 10 10 9 9 9 9 10 6 11 13 14 15 13 11 7 9 12 13 11 11 11 12 9 9 8 12 12 13 14 14 14 14 13 15 15 15 15 17 19 20 19 19 15 10 10 11 7 4 8 9 9 6 7 7 7 6 5 5 8 9 8
12 12 12 12 12 12 12 12 12 12 11 11 11 11 11 11 11 10 8 9 10 10 11 11 9 9 10 9 8 8 8 8 10 13 13 14 13 13 8 9 11 12 11 13 12 10 10 8 10 12 14 13 12 14 14 14 13 13 14 15 16 14 15 16 17 15 14 14 12 10 7 6 8 9 12 8 7 6 6 6 5 4 2 3 3
12 12 12 12 12 12 12 13 13 13 12 12 12 12 11 11 11 9 8 9 9 9 10 10 10 10 10 9 9 10 9 9 11 11 11 12 12 8 8 10 11 11 11 13 13 10 8 8 10 12 15 13 13 13 13 13 14 14 14 15 15 14 14 14 15 15 15 14 13 11 10 10 10 10 12 8 6 6 5 6 5 4 5 5 6
12 12 12 13 13 13 13 13 14 13 12 12 12 12 11 11 10 8 9 9 9 9 9 10 9 10 10 10 10 10 10 8 12 12 12 13 9 7 9 8 9 12 12 13 12 10 8 10 12 14 16 13 12 10 11 10 12 13 14 14 13 13 13 11 14 16 15 14 14 14 13 13 17 16 9 6 6 4 5 4 7 5 6 8 7
12 12 13 13 13 13 13 13 13 13 13 13 12 11 11 10 10 8 9 9 9 9 9 10 10 9 10 10 10 10 10 7 11 12 12 12 10 8 9 9 9 9 9 10 9 11 11 16 17 15 13 13 9 7 10 11 13 11 11 12 12 13 13 11 9 9 13 12 11 11 11 11 10 9 9 10 8 6 7 9 7 4 7 7 8
12 13 13 13 14 14 13 13 13 13 13 13 12 12 11 10 9 9 9 9 9 9 9 9 9 9 9 10 11 11 11 8 9 12 13 12 9 9 8 8 7 9 9 9 10 9 8 13 18 14 12 14 9 9 10 11 12 12 11 8 9 13 12 11 11 11 10 11 11 11 10 9 9 9 10 11 11 12 11 9 8 8 9 8 7
12 13 13 13 13 13 13 13 13 13 13 12 12 11 10 10 10 9 9 9 9 9 9 9 10 9 9 9 9 9 10 10 7 13 12 12 12 10 7 8 9 9 9 10 9 10 8 11 10 13 16 13 11 10 11 13 14 12 6 7 12 15 9 10 11 10 9 11 11 13 15 14 13 11 11 11 12 13 13 10 8 8 8 6 6
12 13 12 13 14 14 13 13 14 13 12 12 11 11 10 10 10 9 9 9 9 9 10 10 10 10 9 9 9 9 9 9 9 10 12 12 13 11 9 9 8 8 9 10 11 11 8 5 8 8 11 15 14 13 12 13 13 11 9 10 12 11 5 5 7 13 11 9 8 12 10 9 9 10 10 10 10 10 11 11 9 8 8 7 5
12 13 14 14 14 14 14 13 13 12 11 11 11 11 10 10 9 9 8 8 10 10 10 10 9 10 9 8 9 9 9 9 10 8 11 12 13 13 10 11 10 8 9 9 10 11 9 6 5 8 11 13 15 14 14 12 14 10 12 13 11 11 8 7 5 5 6 8 10 12 9 8 8 10 11 10 10 11 10 10 9 10 7 5 6
13 13 14 14 14 14 14 14 13 11 11 11 11 11 10 9 9 9 9 9 10 11 10 10 10 9 9 8 7 8 7 8 8 10 9 11 12 13 14 12 10 9 10 11 10 10 8 7 10 11 14 15 13 13 12 12 10 10 12 11 11 10 8 8 6 6 8 8 8 10 9 10 9 11 11 10 10 9 9 9 9 9 7 5 7
13 13 13 13 14 14 14 14 13 12 12 11 10 10 9 9 9 8 8 8 9 9 9 9 9 9 9 8 7 6 6 7 6 8 8 10 11 12 13 14 13 10 9 9 8 10 8 8 6 5 6 11 12 12 13 12 10 12 11 12 12 11 8 9 8 10 9 8 6 7 8 9 10 9 10 10 10 9 8 8 9 9 9 7 7
13 13 14 14 14 13 13 13 13 12 11 10 10 9 10 10 9 8 8 8 9 9 9 9 10 10 9 8 7 5 6 6 7 6 9 10 11 11 12 12 12 11 9 8 8 7 5 4 5 3 4 3 7 8 8 10 11 11 12 12 12 11 9 9 11 9 9 11 11 9 10 12 11 7 4 9 8 7 6 7 6 5 3 0 3
13 14 14 14 14 14 14 14 13 12 12 10 9 8 9 9 9 8 8 8 8 9 9 9 8 9 9 8 7 6 6 6 6 6 6 8 9 12 13 11 11 12 12 9 9 9 8 8 7 5 5 4 4 5 6 7 9 12 12 11 9 11 12 12 11 11 11 12 12 12 13 10 8 6 11 9 7 7 9 7 7 6 5 5 7
13 14 14 14 14 13 13 12 12 12 12 10 9 8 8 8 8 8 8 8 8 9 9 9 8 7 10 8 7 7 6 6 6 5 5 5 6 6 7 8 11 10 8 8 8 8 8 8 8 9 9 9 8 8 10 9 9 10 9 11 10 10 10 11 12 12 12 11 11 12 11 9 6 6 6 6 8 8 7 6 6 8 7 6 6
14 15 16 13 12 12 12 15 15 12 11 11 11 10 8 9 9 9 8 8 8 9 9 9 10 9 8 8 7 7 7 6 5 5 5 5 6 6 5 5 5 6 6 6 6 6 7 7 8 7 7 7 8 9 10 11 11 11 10 11 12 12 14 17 17 12 13 12 10 7 5 4 6 7 8 8 6 6 6 8 8 9 10 9 7
14 15 15 13 12 12 12 12 12 12 12 12 11 10 10 10 9 10 10 10 9 9 10 9 8 9 10 8 7 8 7 7 3 6 3 2 3 4 5 5 5 6 6 3 5 4 4 5 5 6 7 8 8 7 7 8 10 9 12 12 11 12 12 12 12 12 12 9 9 7 8 7 7 10 9 8 7 7 7 9 7 7 7 6 6
14 14 14 13 13 12 12 12 12 12 13 12 13 12 11 11 11 11 11 11 10 10 9 11 11 9 9 9 8 8 8 5 5 3 5 6 7 6 8 9 8 6 4 4 5 4 5 5 6 7 8 8 7 7 6 6 6 7 7 7 8 10 10 10 11 12 10 10 9 10 8 6 6 6 6 6 8 8 9 8 8 8 7 6 6
13 14 14 13 14 14 12 12 12 12 12 13 13 13 13 11 11 16 15 14 13 14 14 15 16 16 13 12 10 11 12 13 15 13 11 9 8 8 8 7 8 6 3 3 4 5 6 7 7 7 6 6 6 4 4 5 4 5 6 5 8 8 9 10 9 8 10 10 8 7 7 7 7 8 7 8 9 9 8 7 8 7 7 7 7
12 13 14 14 14 14 13 13 13 12 12 12 12 12 12 12 11 9 15 16 16 17 17 17 17 16 15 14 12 10 11 13 14 12 9 6 7 7 8 7 7 5 7 4 5 6 7 7 8 7 6 6 4 3 3 3 3 4 3 4 6 7 7 9 8 9 8 7 7 8 9 9 8 8 9 9 9 8 9 8 8 7 6 6 5
13 14 14 14 14 15 14 13 13 12 13 12 13 12 12 12 13 13 9 12 17 17 17 18 17 17 15 14 15 14 15 11 6 7 5 6 5 4 3 6 7 6 6 4 7 7 6 6 7 5 5 5 4 3 3 4 3 2 2 3 1 4 5 2 3 5 7 7 7 8 7 7 6 9 7 8 9 9 10 9 8 7 7 6 6
15 14 14 15 14 14 13 13 13 12 13 12 13 13 11 10 10 12 12 9 8 9 12 16 17 16 14 14 13 14 14 15 15 12 9 9 9 8 3 2 1 7 6 7 8 7 5 6 6 6 6 5 4 3 4 5 4 3 2 2 0 1 4 5 1 2 2 4 4 5 5 4 4 1 7 13 10 11 10 8 8 7 7 7 8
13 16 21 16 13 13 12 11 12 12 13 13 13 12 12 11 9 9 10 11 10 8 7 7 9 15 13 10 12 14 14 14 12 6 4 3 3 4 5 3 3 3 3 5 7 6 6 6 6 5 6 6 5 5 5 6 3 4 4 2 2 2 1 1 2 4 5 5 6 5 5 6 5 6 6 9 11 9 8 7 7 7 7 7 8
13 13 12 12 11 12 12 13 12 13 13 13 13 12 11 12 13 10 8 8 9 9 7 7 8 8 16 15 12 12 12 11 7 5 5 4 5 7 6 7 6 6 6 7 9 7 6 6 6 6 5 6 5 4 5 5 4 4 4 3 3 4 4 2 2 3 3 5 6 7 5 6 7 6 7 8 8 8 7 7 7 7 8 9 8
13 12 11 11 12 13 13 14 14 13 13 13 11 10 8 9 11 10 8 8 9 9 8 8 8 5 5 7 9 9 10 7 6 4 3 5 7 8 8 10 11 9 9 7 7 6 6 5 5 5 5 5 4 5 5 5 4 3 2 3 4 4 3 4 3 4 4 3 5 6 6 6 7 7 7 8 7 8 8 8 8 7 7 8 7
13 12 11 12 14 14 13 13 13 14 13 12 10 10 10 9 9 8 8 9 8 8 8 8 8 8 7 4 8 6 5 5 4 5 7 6 6 6 7 8 8 9 7 6 3 6 6 5 5 5 5 4 4 4 4 4 4 5 5 4 5 5 7 5 5 5 6 6 6 6 7 8 7 7 6 7 8 8 8 8 9 9 9 8 8
12 13 14 16 14 13 12 11 12 11 12 11 11 9 11 9 9 9 9 8 8 8 8 8 8 8 7 5 4 4 3 4 5 5 6 6 6 7 8 8 9 6 7 8 8 7 6 5 5 4 4 3 3 3 4 4 5 5 5 5 6 7 7 6 6 6 7 8 8 8 8 8 8 9 9 9 9 10 10 10 10 11 10 10 9
13 13 13 16 13 12 11 11 10 10 11 11 11 10 8 7 7 8 8 9 9 8 8 8 8 7 7 5 6 5 6 7 6 3 3 4 6 8 9 8 9 8 8 7 8 8 6 5 5 5 4 5 5 5 5 5 5 6 6 6 7 8 7 7 7 7 7 7 8 9 8 9 9 9 9 9 9 9 9 9 9 9 9 9 9
12 12 14 13 13 11 11 11 11 12 11 10 10 10 10 10 9 8 7 8 9 9 9 9 7 6 7 6 1 3 4 6 3 1 1 4 5 6 8 7 6 6 7 8 7 6 5 5 6 6 4 3 3 5 5 5 6 6 6 6 7 7 8 7 7 6 6 6 7 7 8 9 9 9 9 8 8 9 8 8 8 9 8 8 8
12 11 11 10 12 11 11 11 11 12 11 11 11 11 11 11 9 7 8 9 10 9 9 9 9 7 3 3 4 3 3 4 3 3 2 4 5 3 3 6 4 6 7 6 5 5 5 5 4 4 3 3 3 5 4 5 6 6 7 7 7 8 7 7 7 7 7 6 6 8 8 8 9 9 9 8 8 9 9 9 8 8 8 9 9
11 10 10 10 11 11 11 11 11 12 11 11 11 12 11 9 8 8 6 6 6 8 11 9 7 7 4 4 3 5 3 5 3 3 5 4 5 6 4 5 5 6 4 4 3 4 4 5 4 3 4 3 3 3 2 4 6 7 8 7 7 8 8 8 8 8 7 7 7 7 7 7 7 8 8 8 8 8 8 8 8 8 8 8 8
10 9 10 10 10 10 10 10 11 11 12 12 12 11 9 9 7 6 8 7 8 7 7 8 8 5 5 2 2 1 5 4 3 4 6 6 6 5 5 4 4 5 4 4 4 4 5 5 5 4 3 2 1 2 2 2 4 5 6 7 7 7 7 7 8 8 8 8 8 8 8 9 8 8 8 8 7 8 8 8 7 7 8 7 8
9 9 10 10 11 10 11 10 10 11 11 10 9 10 10 8 8 9 10 9 9 9 9 9 9 9 7 5 2 3 6 1 5 6 4 4 5 6 6 5 5 5 4 5 5 6 6 5 6 6 5 3 3 3 2 4 6 4 2 5 6 7 6 7 7 7 8 8 8 8 8 8 8 8 8 8 7 7 7 7 7 8 8 7 6
9 10 10 10 10 11 10 10 11 9 9 9 10 10 9 9 9 9 8 8 8 8 8 8 9 8 7 4 3 3 4 1 4 6 3 1 4 5 5 5 6 6 7 7 7 6 5 4 5 5 5 5 3 3 3 2 1 3 4 5 5 5 5 5 5 6 7 8 8 7 7 8 7 7 7 7 7 5 1 2 6 7 6 6 6
10 9 10 10 11 9 9 11 10 10 10 9 9 9 9 9 9 9 9 9 9 8 8 7 8 9 6 3 0 4 3 2 5 6 3 1 4 5 6 6 6 7 7 6 6 5 5 5 4 2 4 5 1 1 2 3 3 4 4 5 5 5 5 4 5 5 5 5 6 6 6 6 6 6 5 6 6 5 6 3 3 4 2 3 6
9 9 9 10 10 10 10 10 11 12 10 10 9 9 9 9 9 9 8 9 9 8 8 8 7 8 8 7 7 6 4 5 6 5 5 4 4 5 7 7 7 7 7 7 6 6 5 6 5 4 5 6 5 5 5 3 4 5 5 5 6 5 6 6 5 6 5 4 3 4 5 6 6 6 6 5 6 5 5 4 4 4 5 7 8
10 9 9 9 9 10 10 11 10 10 10 9 9 10 10 10 9 9 9 9 9 8 8 8 8 7 7 7 6 6 5 6 6 5 5 5 5 6 7 8 8 7 7 7 7 7 6 6 5 7 8 7 7 6 4 3 3 4 5 6 6 8 12 14 8 6 5 3 5 4 5 5 6 6 6 7 6 5 6 6 6 6 7 8 9
9 9 9 9 9 9 9 8 8 8 9 9 9 9 10 10 10 9 9 9 8 9 8 8 8 8 8 7 7 7 6 7 6 5 5 6 6 7 8 9 8 7 7 6 6 7 7 7 8 8 8 8 7 6 5 4 4 5 5 5 6 9 10 12 12 10 5 5 4 3 4 5 5 5 5 6 7 8 8 7 7 7 8 9 10
9 9 9 8 8 9 9 9 9 9 9 9 9 10 10 10 10 9 9 9 9 9 10 10 9 8 8 8 8 7 6 7 6 6 5 7 7 8 8 8 8 7 8 8 7 7 7 8 8 8 8 8 8 7 5 5 5 5 5 6 9 11 12 11 8 10 12 5 5 5 5 6 7 7 7 8 8 9 9 10 10 10 9 10 10
Wind_Direction
339 337 329 323 321 319 315 311 301 297 291 292 293 293 293 292 292 293 290 281 277 272 267 262 258 254 251 244 235 233 232 237 230 239 220 206 199 199 223 237 230 218 220 226 228 228 226 229 231 230 234 240 245 245 245 239 236 238 241 235 234 228 223 226 247 258 259 260 269 267 257 259 252 245 260 254 234 219 223 250 246 242 236 237 229
330 325 324 322 322 323 322 309 299 293 294 295 290 291 293 294 292 293 289 282 278 274 269 263 261 254 252 246 238 233 227 227 235 221 228 221 199 197 213 218 239 224 219 218 222 231 225 224 228 232 232 239 242 245 246 245 236 238 232 235 241 239 232 237 240 254 262 254 261 266 279 262 259 248 257 264 267 268 256 250 249 251 257 264 257
317 309 308 309 313 317 317 314 311 299 290 289 291 292 293 291 295 292 292 290 279 270 272 270 266 265 258 249 243 239 234 229 226 227 238 215 203 201 200 215 227 225 217 218 219 219 225 226 227 231 234 235 236 242 244 244 240 239 239 236 238 240 241 237 243 248 253 257 254 258 251 238 246 253 236 237 245 253 256 254 262 249 242 249 252
316 314 309 307 306 305 306 309 307 305 298 293 289 292 291 293 293 292 291 290 287 284 280 277 275 268 265 256 246 245 242 238 234 222 225 220 211 207 203 209 215 221 221 218 217 218 223 228 229 229 233 236 238 240 240 245 249 247 247 240 240 245 246 244 229 241 253 259 251 262 264 264 239 235 238 231 239 238 240 248 231 251 254 239 239
318 316 312 308 306 304 303 302 302 302 299 296 293 290 291 290 290 291 293 291 290 285 279 273 267 267 263 260 261 248 240 238 237 228 232 227 216 212 208 207 213 215 218 219 219 216 216 218 224 228 229 235 232 230 234 237 233 238 240 240 239 241 243 244 242 235 241 249 254 251 257 251 246 245 233 246 234 228 234 244 256 254 246 251 260
321 317 314 310 307 304 301 300 299 301 300 297 294 293 294 292 290 289 290 292 292 289 279 271 266 260 265 264 249 253 252 238 236 234 223 221 219 215 213 211 211 213 214 215 216 218 222 222 223 224 228 240 256 263 256 253 256 244 243 245 246 245 247 251 250 244 241 246 248 250 242 247 252 238 227 228 248 253 246 238 234 236 247 246 235
319 315 313 310 308 305 302 299 299 297 297 294 293 293 293 294 292 290 290 291 291 291 289 277 270 263 254 250 252 249 247 243 239 238 232 221 220 216 214 210 212 212 214 214 211 209 215 224 218 215 219 230 236 239 240 233 239 244 240 239 240 245 245 246 245 243 242 245 243 245 247 244 237 241 227 222 236 247 255 261 258 235 219 244 254
313 310 310 310 309 310 308 307 304 299 295 293 291 292 293 293 293 291 289 288 289 289 291 289 280 274 258 246 243 256 262 259 247 239 241 234 225 227 219 211 212 217 220 216 209 204 205 219 214 212 216 219 228 235 240 229 230 234 238 235 236 238 242 242 238 237 239 241 246 243 236 238 227 234 236 222 237 236 237 244 248 248 241 225 238
307 308 312 315 316 315 312 308 304 301 297 293 292 292 293 294 292 290 288 288 287 289 289 287 282 279 274 265 251 245 248 246 246 245 239 245 246 235 224 215 213 214 217 221 215 214 216 213 209 215 208 212 220 227 234 232 230 228 230 231 231 229 231 240 243 244 234 239 240 234 236 232 233 231 229 229 233 243 239 231 243 247 247 242 231
310 316 317 317 317 316 312 309 305 303 300 297 295 294 294 295 294 292 290 288 287 287 286 286 279 274 272 264 259 259 252 242 245 250 247 242 240 241 238 223 218 217 220 242 253 235 216 211 213 211 213 208 212 218 226 235 237 239 229 219 221 222 220 222 232 234 236 236 236 240 238 235 231 224 230 233 237 234 237 231 244 249 248 253 255
314 318 319 318 317 314 311 308 307 301 300 298 296 296 294 294 293 293 290 288 286 287 284 284 283 276 271 268 255 246 252 252 244 240 247 251 248 246 252 252 233 205 212 232 232 248 232 217 216 205 206 213 214 212 218 220 225 230 241 247 241 229 217 221 228 230 234 225 247 247 248 245 237 233 232 238 227 234 234 237 243 239 240 247 255
319 319 318 317 316 314 310 309 305 302 300 298 297 297 296 293 292 291 291 290 288 288 287 285 284 279 275 276 271 260 244 232 241 279 288 273 256 251 248 244 237 225 225 219 217 227 242 235 220 215 208 209 214 215 216 218 220 224 226 230 233 234 237 232 223 222 226 230 227 234 249 261 252 234 237 237 237 235 236 240 250 259 250 252 240
321 320 319 317 316 313 310 308 306 304 305 301 299 297 294 293 290 291 291 292 291 288 288 288 286 286 281 274 273 270 267 207 166 215 240 257 252 239 253 257 243 231 229 236 237 240 227 237 235 217 217 200 206 212 214 214 215 219 222 224 229 230 230 232 237 234 219 215 228 241 229 234 268 267 242 239 230 244 228 232 225 263 276 261 248
321 320 319 318 316 313 311 309 306 304 304 303 300 297 294 292 293 291 294 292 290 289 287 287 286 283 282 281 281 281 274 237 193 209 226 237 242 238 235 246 258 250 236 233 234 232 224 230 239 246 228 209 207 207 211 213 210 211 217 223 226 225 224 227 227 229 232 227 217 224 217 196 226 256 265 226 214 230 234 237 216 214 244 250 272
319 319 318 317 316 315 313 308 305 303 302 301 298 295 294 294 293 294 294 291 290 290 291 291 288 285 285 283 281 276 275 255 214 210 217 230 230 231 227 241 245 246 241 239 237 237 233 230 229 234 242 225 210 208 209 209 211 213 215 216 220 220 220 220 221 223 222 227 225 219 209 203 232 244 258 237 217 221 226 239 240 220 240 306 294
318 319 317 317 315 314 310 307 304 302 301 300 297 296 296 295 295 295 288 286 286 287 287 288 288 288 286 286 282 275 269 237 228 230 235 241 231 227 232 236 244 244 243 244 240 236 231 234 240 237 240 238 224 210 215 218 217 219 221 223 222 219 220 218 214 216 218 217 216 208 209 203 212 231 244 238 216 211 226 230 223 225 250 248 250
318 320 317 317 316 313 309 306 302 300 301 300 298 298 296 295 292 293 289 286 286 287 288 287 288 287 288 287 281 277 277 223 213 227 231 233 228 238 242 235 238 246 242 239 241 239 230 236 238 239 236 238 239 216 214 234 232 227 224 224 221 220 221 215 206 210 215 218 213 208 205 201 209 209 203 204 226 212 221 228 238 230 232 247 254
318 318 316 317 314 311 307 304 300 299 299 298 299 298 297 294 292 290 286 287 284 284 287 285 283 281 283 284 282 284 278 256 204 222 232 229 221 227 234 238 241 243 248 246 241 244 230 229 236 241 247 246 223 211 214 211 231 242 240 225 220 221 221 216 212 202 205 215 217 214 214 217 210 199 192 188 189 200 224 236 229 238 257 247 247
318 316 315 314 313 310 306 301 298 298 298 297 299 299 298 296 292 291 285 281 282 283 280 281 282 283 282 283 287 279 275 265 190 209 214 223 220 240 238 237 243 243 246 249 245 243 238 238 227 227 229 244 230 208 210 211 225 230 241 257 249 236 226 217 215 202 198 212 223 223 229 222 217 216 209 193 196 203 225 234 243 240 247 232 230
314 311 312 312 311 308 304 304 301 299 298 297 296 296 294 291 290 289 285 281 283 281 278 278 279 283 286 285 284 281 278 274 237 193 208 218 219 236 238 243 244 244 244 250 248 242 236 246 238 227 233 238 234 211 211 206 231 231 218 231 241 243 234 227 223 219 215 227 224 222 226 224 223 220 229 212 208 220 233 234 226 232 236 229 218
311 312 311 310 309 306 302 304 304 302 299 296 295 293 292 291 294 292 287 286 284 281 278 276 275 277 278 280 281 279 278 280 270 190 207 214 221 221 249 245 249 249 246 247 250 250 242 239 258 242 228 231 230 225 209 210 223 236 219 229 236 252 273 262 258 251 242 236 236 237 221 218 224 226 223 222 214 215 219 224 222 212 216 220 217
312 312 310 309 309 305 304 306 303 301 298 297 297 295 296 296 294 290 284 281 277 272 272 273 274 273 273 273 270 273 273 252 263 227 200 215 217 218 237 252 252 252 252 248 253 254 247 223 249 249 243 233 225 226 225 218 218 227 237 239 250 257 255 248 259 277 266 257 243 243 223 221 228 228 225 221 213 211 214 211 210 215 219 214 201
312 311 310 310 309 307 305 305 304 303 301 301 301 301 300 293 290 284 282 279 275 273 271 271 272 273 271 270 271 274 273 272 240 255 213 204 218 219 225 241 259 258 252 251 250 254 254 247 232 216 206 221 215 220 222 222 223 231 240 249 258 259 251 243 238 237 238 249 253 248 238 222 216 222 223 222 212 202 203 207 205 207 204 223 219
313 311 310 310 309 308 307 305 303 301 301 303 301 299 296 294 292 287 279 272 271 273 275 272 268 266 270 268 275 274 269 266 253 230 244 219 210 215 220 225 234 240 250 253 255 257 259 257 306 1 214 198 207 212 214 211 222 228 228 236 243 248 250 251 234 232 234 226 219 240 243 246 233 224 226 224 219 195 196 201 213 207 208 205 187
313 311 311 310 309 308 306 304 303 301 301 300 298 295 291 290 289 285 278 272 270 275 278 277 276 275 265 268 273 271 265 272 277 245 223 232 221 222 225 224 228 231 241 253 258 264 280 319 344 329 356 282 236 234 239 236 233 237 230 226 228 239 233 236 241 239 234 231 224 221 229 230 227 221 219 246 206 171 182 202 189 155 116 106 234
312 311 309 309 309 308 306 305 304 302 300 300 295 288 286 286 287 288 285 281 279 277 278 280 283 285 289 280 273 274 274 272 271 272 259 236 233 221 225 224 226 219 225 242 251 266 287 292 297 297 260 236 244 235 229 229 218 225 232 234 234 240 240 234 233 234 236 236 229 227 229 228 222 233 229 197 177 181 198 180 170 151 160 196 184
309 310 311 311 310 308 307 307 309 305 301 301 298 295 291 287 283 277 276 280 280 279 280 278 274 258 256 265 278 274 276 277 277 279 275 262 263 250 207 218 219 227 224 232 229 242 246 246 246 241 245 250 249 257 257 246 227 224 229 233 229 232 236 235 233 231 231 236 240 238 232 216 179 200 180 178 185 176 171 158 170 161 174 178 181
312 311 311 310 308 308 306 304 302 301 305 305 303 298 291 288 286 283 282 280 282 281 280 280 279 282 290 293 287 285 275 270 262 248 254 283 286 278 263 252 236 227 226 225 222 224 231 226 223 233 240 237 236 237 239 240 243 245 240 234 232 227 225 234 240 238 237 234 234 220 222 178 191 191 193 189 174 162 154 161 180 167 169 169 182
312 308 309 310 308 310 308 309 307 303 303 302 299 297 294 291 287 285 285 285 283 282 281 281 280 283 285 289 291 287 286 283 304 52 21 357 286 311 302 279 277 254 237 215 235 219 223 235 243 240 240 244 243 243 246 240 242 237 237 237 233 232 227 221 223 228 229 226 223 200 203 215 212 190 171 165 163 172 158 161 168 163 162 165 155
311 311 311 310 309 311 312 308 304 302 304 305 305 301 285 260 259 276 282 272 255 257 258 265 274 293 296 288 287 284 281 319 46 327 293 301 306 282 277 284 292 319 9 148 224 232 230 241 243 245 245 245 246 246 249 255 253 251 248 242 238 237 231 222 225 227 224 222 210 203 196 191 192 176 159 150 159 162 169 165 157 147 153 165 160
311 311 313 311 313 312 306 303 305 304 301 302 304 304 301 292 244 231 243 258 263 258 249 248 256 259 258 271 277 279 284 290 287 283 283 273 265 267 264 272 273 268 232 191 215 229 244 251 247 249 249 251 256 258 254 257 255 260 259 255 245 236 230 229 225 222 219 211 204 199 181 182 174 165 173 171 163 154 143 141 134 145 152 163 173
312 312 312 311 310 308 304 302 302 300 300 303 305 303 297 293 297 248 228 237 245 247 250 251 251 251 247 239 251 274 260 243 250 258 252 244 262 293 299 266 238 218 223 232 242 234 236 246 250 242 233 236 232 259 273 271 263 262 252 253 252 254 251 239 225 219 211 199 188 189 193 192 184 177 170 158 150 140 139 137 143 154 163 168 153
311 311 311 308 308 306 305 304 303 301 301 303 303 302 296 301 301 303 270 224 230 239 247 247 247 249 246 242 235 236 255 275 280 267 285 313 315 307 333 304 268 217 126 184 222 240 238 243 259 256 241 249 236 222 241 257 276 280 287 271 336 14 342 312 162 200 209 204 189 196 192 189 187 174 145 146 146 146 144 144 152 157 157 151 130
314 312 312 312 309 307 305 303 302 300 300 300 301 299 297 296 300 299 293 300 282 259 250 248 248 249 250 243 236 235 243 252 261 268 272 277 283 287 240 199 220 246 204 210 224 239 234 238 244 250 254 252 252 234 245 248 250 232 224 242 105 14 3 331 93 123 159 185 175 161 151 110 91 213 175 155 145 136 138 143 150 146 150 151 153
312 311 311 312 309 307 304 302 301 299 299 299 300 298 295 298 296 290 287 291 294 287 287 275 246 228 235 234 224 228 233 241 251 276 308 303 309 283 232 185 158 187 209 230 247 243 240 237 241 238 243 246 244 240 247 249 243 200 200 228 170 114 52 309 82 99 104 103 97 97 108 116 109 105 81 94 110 124 127 135 141 151 148 156 162
309 309 312 310 306 303 302 302 302 300 300 301 301 298 295 294 292 285 282 282 281 283 283 259 257 241 221 230 223 206 214 228 232 224 232 201 195 163 219 204 185 176 181 201 229 232 237 243 246 242 240 244 235 235 252 249 234 223 180 177 151 166 172 145 79 86 105 103 100 108 117 138 138 137 125 118 116 126 138 145 147 155 164 168 166
311 312 313 311 307 309 308 307 303 302 302 297 292 289 284 291 288 285 280 271 269 276 277 283 281 260 173 219 213 217 214 186 177 198 197 188 189 191 236 228 204 174 170 203 234 235 233 237 240 243 237 231 224 223 220 229 226 221 168 165 146 154 159 152 152 149 144 129 117 130 148 148 148 146 136 131 134 139 148 149 152 151 165 162 158
314 314 313 310 309 307 306 305 304 305 302 299 293 288 290 292 292 280 281 285 286 283 280 285 284 283 278 288 158 206 189 170 135 131 116 133 172 209 227 249 227 201 180 154 197 239 237 235 229 228 215 214 221 218 201 203 193 188 175 177 161 162 152 164 175 168 154 147 146 158 165 154 158 149 140 127 133 147 151 158 162 161 162 159 171
315 311 304 301 307 310 311 307 306 303 301 302 300 296 299 299 298 296 291 289 289 288 294 290 291 294 294 288 256 223 191 217 226 231 190 194 205 207 214 225 227 192 154 170 191 212 230 217 205 201 207 224 214 225 215 199 187 177 170 175 160 149 163 165 167 175 160 153 157 164 164 158 156 150 148 147 154 161 165 165 166 166 165 167 179
317 316 313 317 314 314 312 306 304 300 302 303 300 302 300 297 292 292 298 298 295 293 288 285 281 279 287 292 282 273 262 277 283 274 244 197 205 212 211 212 218 187 169 180 188 198 205 194 176 176 200 212 221 209 205 186 184 171 173 173 157 158 160 159 157 165 167 163 157 160 164 162 158 156 156 161 159 158 160 162 162 166 165 168 172
320 315 314 315 317 313 309 308 307 307 307 306 304 310 317 315 306 302 300 294 293 294 287 281 282 294 299 299 306 307 285 291 287 93 183 202 216 208 199 198 192 183 186 184 186 186 190 170 173 189 199 216 233 226 208 190 178 170 172 162 162 158 158 154 157 160 155 159 166 165 160 157 158 162 159 153 151 156 156 158 156 159 161 169 166
318 316 315 315 315 314 313 313 313 314 315 313 314 316 318 321 313 316 315 313 305 301 295 302 308 302 282 201 230 193 211 246 216 192 185 213 185 175 190 177 165 191 190 176 180 176 161 158 172 174 194 195 238 229 188 191 183 174 167 167 161 161 159 156 156 158 158 159 162 163 161 161 162 164 150 142 155 159 155 162 162 162 164 169 168
322 319 317 313 315 316 320 318 318 321 323 322 317 312 313 310 312 319 309 301 305 311 309 306 308 316 319 222 186 177 219 234 223 179 157 179 157 132 183 202 182 189 187 167 145 153 158 151 140 101 53 26 355 318 238 197 194 177 170 170 170 168 165 160 160 160 161 158 154 152 151 150 157 156 150 160 159 154 159 160 163 169 168 172 172
323 321 317 316 316 318 320 321 327 329 327 322 321 315 313 317 316 316 320 320 326 328 320 311 317 313 304 232 155 220 249 212 150 162 160 159 150 155 177 179 165 158 141 133 139 139 139 120 98 91 87 74 25 282 260 186 178 179 177 172 172 170 165 162 160 164 161 160 153 155 157 157 163 163 160 168 166 165 162 167 175 179 176 178 177
327 325 324 322 324 326 327 329 327 328 328 327 326 321 328 340 335 345 345 345 344 337 332 326 322 320 314 292 212 223 266 218 132 138 143 143 153 153 154 142 146 139 138 120 116 112 97 100 120 116 112 111 117 143 92 26 357 5 182 176 170 160 159 156 160 158 160 157 159 162 160 163 171 171 165 173 172 173 170 172 181 171 176 180 170
331 327 326 327 327 331 334 331 330 329 332 330 329 331 339 338 342 342 342 343 340 334 334 330 325 310 304 307 31 304 283 202 122 116 106 306 156 144 142 135 110 90 88 87 88 89 103 114 129 127 131 138 155 139 130 119 88 51 41 80 94 103 119 125 132 148 149 153 156 164 162 164 176 169 171 172 174 130 166 172 171 180 183 180 174
335 334 333 332 332 333 334 335 334 337 339 338 340 338 342 342 343 342 341 345 341 340 340 342 338 340 354 5 268 268 254 116 111 118 114 46 73 87 98 94 84 81 83 97 102 98 86 85 77 95 127 127 168 196 123 115 106 79 63 61 70 65 70 92 126 140 134 136 151 161 160 167 167 165 161 144 95 96 123 65 14 100 131 119 110
335 335 336 336 333 337 340 340 339 342 344 343 343 341 343 343 348 348 349 346 348 350 347 352 354 12 16 23 33 24 19 61 75 75 76 64 68 91 99 95 88 83 86 82 78 77 82 92 104 108 92 79 60 29 20 24 68 82 84 70 53 38 1 338 99 86 98 109 120 131 162 167 170 147 173 110 110 134 107 128 140 128 110 99 94
338 340 340 341 341 344 343 342 346 348 345 344 344 347 349 350 352 354 353 355 354 358 357 355 358 4 13 16 19 23 22 55 69 59 55 56 58 75 85 84 82 83 81 79 79 80 78 80 73 57 52 51 61 49 42 20 36 75 78 78 53 34 47 47 58 63 2 50 85 71 81 75 77 78 87 111 143 131 137 132 127 113 121 110 101
341 341 344 344 346 347 347 348 349 351 350 351 354 354 354 354 355 355 355 0 6 10 8 6 3 8 13 14 17 19 24 42 47 46 45 46 54 61 68 73 75 77 79 81 84 87 85 77 68 60 56 53 50 61 57 49 32 43 60 67 62 61 56 61 51 29 22 87 61 85 95 111 121 123 117 112 114 117 119 124 125 133 126 124 124
349 351 351 350 348 347 352 356 357 357 0 1 360 1 1 359 359 359 359 7 12 15 22 20 9 10 15 16 19 24 28 32 41 47 46 51 50 57 67 73 79 85 89 86 79 71 68 65 59 57 53 49 45 44 45 49 47 51 59 62 58 57 54 50 51 36 26 24 118 116 112 101 105 107 107 105 97 97 97 110 115 109 105 107 112